CZ-3B R/B

基本信息
目录编号:
59707
目录名称:
CZ-3B R/B
国际标识:
2024-087C
轨道中心:
EARTH
物体状态:
已陨落(2026-06-30)
发射日期:
2024-05-09 UTC
国别:
中国 (CN)
轨道信息
数据来源: 国际轨道数据
星历时间: 2026-06-30T23:11:26+0800
半长轴: 6582.089km
偏心率: 0.0133376
轨道倾角: 52.913°
近地点辐角: 207.552°
升交点赤经: 236.774°
平近点角: 151.840°
近地点: 116.162km
远地点: 291.742km
周期: 88.574分钟
每日圈数: 16.257629
详细信息
发射场:
XSC
轨道高度:
LEO
数据来源:
AOE Integration Group
参考系:
TEME
时间系统:
UTC
历元类型:
SGP4
2D轨道图
3D轨道图
轨道高度分析图
轨道倾角分析图
轨道综合分析图
查看轨道综合分析图